Flag Weather past 2 weeks in Gronau (Westfalen), North Rhine-Westphalia, Germany

Now
53 °F

Partly sunny.


Feels Like: 53 °F
Forecast: 45 / 53 °F
Wind: 2 mph from Southeast

Location: Twenthe

Current Time: Nov 22, 2014 at 3:39:46 PM

Latest Report: Nov 22, 2014 at 2:00 PM


Visibility: 9 mi

Pressure: 30.06 "Hg

Humidity: 70%

Dew point: 43 °F

Location of Gronau (Westfalen)Location

Historic Weather in Gronau (Westfalen) — Graph

°F

Gronau (Westfalen) temperature yesterday

Maximum temperature yesterday: 48 °F (at 2:00 PM)
Minimum temperature yesterday: 31 °F (at 4:00 AM)
Average temperature yesterday: 40 °F

Past Weeks' High & Low Weather Summary

 TemperatureHumidityPressure
High55 °F (Nov 9, 2:00 PM)100% (Nov 13, 2:00 AM)30.36 "Hg (Nov 13, 2:00 AM)
Low31 °F (Nov 21, 4:00 AM)64% (Nov 7, 3:00 PM)29.47 "Hg (Nov 16, 2:00 PM)
Average47 °F87%29.85 "Hg
* Reported Nov 7 2:00 PM — Nov 22 2:00 PM, Gronau (Westfalen), Weather by CustomWeather, © 2014

Note: Actual official high and low records may vary slightly from our data, if they occured in-between our weather recording intervals... More about our weather records

Advertising

Gronau (Westfalen) weather history for previous 24 hours

 ConditionsComfort  
Time TempWeatherWind HumidityBarometerVisibility
2:00 PM
Nov 22
53 °FPartly sunny.2 mph70%30.06 "Hg9 mi
1:00 PM50 °FOvercast.2 mph72%30.06 "Hg8 mi
12:00 PM47 °FOvercast.2 mph76%30.08 "Hg7 mi
11:00 AM45 °FScattered clouds.3 mph77%30.09 "Hg7 mi
10:00 AM41 °FOvercast.2 mph84%30.09 "Hg6 mi
9:00 AM40 °FFog.2 mph86%30.09 "Hg5 mi
8:00 AM39 °FFog.2 mph88%30.09 "Hg5 mi
7:00 AM39 °FFog.2 mph87%30.09 "Hg5 mi
6:00 AM39 °FFog.5 mph88%30.08 "Hg4 mi
5:00 AM40 °FFog.3 mph87%30.10 "Hg4 mi
4:00 AM40 °FFog.2 mph88%30.11 "Hg5 mi
3:00 AM39 °FFog.3 mph89%30.10 "Hg4 mi
2:00 AM39 °FFog.3 mph88%30.12 "Hg4 mi
1:00 AM40 °FFog.3 mph87%30.14 "Hg4 mi
12:00 AM40 °FFog.3 mph86%30.14 "Hg5 mi
11:00 PM
Nov 21
40 °FFog.3 mph85%30.16 "Hg6 mi
10:00 PM40 °FFog.3 mph85%30.16 "Hg6 mi
9:00 PM40 °FOvercast.3 mph85%30.16 "Hg6 mi
8:00 PM40 °FFog.3 mph89%30.17 "Hg6 mi
7:00 PM40 °FFog.3 mph89%30.18 "Hg6 mi
6:00 PM41 °FClear.3 mph85%30.17 "Hg7 mi
5:00 PM42 °FPassing clouds.2 mph83%30.18 "Hg9 mi
4:00 PM45 °FSunny.3 mph73%30.18 "Hg11 mi
3:00 PM48 °FSunny.3 mph68%30.19 "Hg15 mi
Weather by CustomWeather, © 2014

See weather overviewHow to use our weather pages